Content
SEND FEEDBACK

Daily
Averages
Monthly
Summary
Turkey

ADIYAMAN, TURKEY


Home > Middle East > Turkey
Elevation: 2224 feet     Latitude: 37 48N     Longitude: 038 18E

WEATHER
 
SELECT A DAY
Number of Records: 143,954;   Date Range: 7/1/96 - 12/16/14
 
SHARE

PRINT THIS DATA

[ ← Previous Day ]
WEATHER ALMANAC - JANUARY 31, 2013
[ Next Day → ]
[ °C ]   °F
Weather ElementAverageHighLow
Temperature36.6 °F39.2 °F (1:50 pm)32 °F (1:20 am)
Dewpoint36.2 °F39.2 °F (4:20 pm)32 °F (1:20 am)
Humidity98.7 %100 % (12:50 am)87 % (3:20 pm)
Barometer29.70 in29.77 in (12:50 am)29.68 in (11:50 am)
Wind Speed4.8 mph9.2 mph (2:20 am)
Weather ElementAverage
Visibility5.3 mi
Wind DirectionS (176.6 °)

Weather ElementTotal
Precipitation---
Heating Degree Days29.4 (Base 65)
Averaged from 47 records on January 31, 2013
WEATHER CONDITIONS BREAKOUT
WIND DIRECTION BREAKOUT
WEATHER BY HOUR - JANUARY 31, 2013
[ °C ]   °F
Local TimeTemperatureDewpointHumidityBarometerVisibilityWind DirectionWind SpeedGust SpeedPrecipitationEventsConditions
12:50 AM33.8 °F33.8 °F100 %29.77 in1.0 miNNW (330°)2.3 mphRainRain
1:20 AM32.0 °F32.0 °F100 %29.77 in1.0 miNorth (10°)1.2 mphRainRain
1:50 AM32.0 °F32.0 °F100 %29.77 in1.1 miNorth (350°)3.5 mphRainRain
2:20 AM33.8 °F33.8 °F100 %29.74 in4.3 miNNW (330°)9.2 mphRainRain
2:50 AM33.8 °F33.8 °F100 %29.74 in6.2 miNW (320°)6.9 mphRain-SnowLight Snow
3:20 AM33.8 °F33.8 °F100 %29.71 in6.2 miNW (320°)5.8 mphRain-SnowLight Snow
3:50 AM35.6 °F35.6 °F100 %29.71 in6.2 miNNW (330°)6.9 mphRain-SnowLight Snow
4:20 AM35.6 °F35.6 °F100 %29.71 in6.2 miNorth (10°)6.9 mphRain-SnowLight Snow
4:50 AM35.6 °F35.6 °F100 %29.71 in6.2 miNorth (10°)4.6 mphOvercast
5:20 AM35.6 °F35.6 °F100 %29.71 in6.2 miNorth (10°)3.5 mphRain-SnowLight Snow
5:50 AM35.6 °F35.6 °F100 %29.71 in6.2 miNorth (350°)4.6 mphRain-SnowLight Snow
6:20 AM35.6 °F35.6 °F100 %29.71 in6.2 miNorth (10°)5.8 mphRain-SnowLight Snow
6:50 AM35.6 °F35.6 °F100 %29.71 in6.2 miNorth (350°)5.8 mphRain-SnowLight Snow
7:20 AM35.6 °F35.6 °F100 %29.71 in6.2 miNNW (340°)5.8 mphRain-SnowLight Snow
7:50 AM35.6 °F35.6 °F100 %29.71 in6.2 miNorth (360°)4.6 mphRain-SnowLight Snow
8:20 AM37.4 °F35.6 °F93 %29.71 in5.0 miNNE (30°)4.6 mphRainLight Rain
8:50 AM35.6 °F35.6 °F100 %29.71 in5.0 miNNE (30°)4.6 mphRainLight Rain
9:20 AM35.6 °F35.6 °F100 %29.71 in2.5 miNNE (20°)6.9 mphRain-SnowLight Rain
9:50 AM35.6 °F35.6 °F100 %29.71 in3.7 miNorth (350°)9.2 mphRain-SnowLight Rain
10:20 AM35.6 °F35.6 °F100 %29.71 in3.7 miNorth (350°)8.1 mphRain-SnowLight Rain
10:50 AM35.6 °F35.6 °F100 %29.71 in3.7 miNorth (360°)6.9 mphRain-SnowLight Rain
11:20 AM35.6 °F33.8 °F93 %29.71 in3.7 miNorth (350°)6.9 mphRain-SnowLight Rain
11:50 AM35.6 °F35.6 °F100 %29.68 in3.7 miNorth (350°)6.9 mphRainLight Rain
12:20 PM37.4 °F35.6 °F93 %29.68 in4.3 miNorth (10°)4.6 mphOvercast
12:50 PM37.4 °F37.4 °F100 %29.68 in5.0 miNorth (10°)4.6 mphOvercast
1:20 PM37.4 °F37.4 °F100 %29.68 in5.0 miNNE (20°)3.5 mphOvercast
1:50 PM39.2 °F37.4 °F93 %29.68 in6.2 miNorth (360°)3.5 mphOvercast
2:20 PM39.2 °F37.4 °F93 %29.68 in6.2 miVariable2.3 mphOvercast
2:50 PM39.2 °F37.4 °F93 %29.68 in6.2 miVariable2.3 mphOvercast
3:20 PM39.2 °F35.6 °F87 %29.68 in6.2 miSouth (190°)3.5 mphOvercast
3:50 PM39.2 °F37.4 °F93 %29.68 in6.2 miSW (220°)4.6 mphOvercast
4:20 PM39.2 °F39.2 °F100 %29.68 in6.2 miSouth (180°)3.5 mphOvercast
4:50 PM39.2 °F39.2 °F100 %29.68 in6.2 miSouth (190°)3.5 mphOvercast
5:20 PM39.2 °F39.2 °F100 %29.68 in6.2 miSSW (200°)4.6 mphOvercast
5:50 PM37.4 °F37.4 °F100 %29.68 in6.2 miSSW (210°)6.9 mphOvercast
6:20 PM37.4 °F37.4 °F100 %29.68 in6.2 miSSW (200°)4.6 mphOvercast
6:50 PM37.4 °F37.4 °F100 %29.68 in6.2 miSW (230°)5.8 mphOvercast
7:20 PM37.4 °F37.4 °F100 %29.68 in6.2 miSSW (210°)4.6 mphMostly Cloudy
7:50 PM37.4 °F37.4 °F100 %29.68 in6.2 miSSE (160°)6.9 mphMostly Cloudy
8:20 PM37.4 °F37.4 °F100 %29.71 in6.2 miVariable2.3 mphMostly Cloudy
8:50 PM37.4 °F37.4 °F100 %29.71 in6.2 miSouth (170°)5.8 mphMostly Cloudy
9:20 PM37.4 °F37.4 °F100 %29.71 in6.2 miWest (260°)4.6 mphMostly Cloudy
9:50 PM37.4 °F37.4 °F100 %29.71 in6.2 miVariable1.2 mphMostly Cloudy
10:20 PM37.4 °F37.4 °F100 %29.71 in6.2 miVariable2.3 mphMostly Cloudy
10:50 PM37.4 °F37.4 °F100 %29.71 in6.2 miVariable2.3 mphMostly Cloudy
11:20 PM37.4 °F37.4 °F100 %29.71 in6.2 miVariable2.3 mphMostly Cloudy
11:50 PM37.4 °F37.4 °F100 %29.71 in6.2 miSSW (210°)4.6 mphMostly Cloudy
Hourly data recorded from LTCP, located miles away from Adiyaman, Turkey







STORIES FROM OUR PARTNERS